Regional Weather Roundup
Issued by NWS Cleveland, OH

Home | Current Version | Previous Version | Text Only | Print | Product List | Glossary On
Versions: 1 2 3 4 5 6 7 8 9 10 11 12 13 14 15 16 17 18 19 20 21 22 23 24 25 26 27 28 29 30 31 32 33 34 35 36 37 38 39 40 41 42 43 44 45 46 47 48 49 50
000
ASUS41 KCLE 191212
RWRCLE
OHIO REGIONAL WEATHER ROUNDUP
NATIONAL WEATHER SERVICE WILMINGTON, OH
700 AM EST SUN FEB 19 2017

NOTE: "FAIR" INDICATES FEW OR NO CLOUDS BELOW 12,000 FEET WITH NO
SIGNIFICANT WEATHER AND/OR OBSTRUCTIONS TO VISIBILITY.

OHZ001>008-015>018-024>027-034-035-043-044-191300-
   NORTHWEST OHIO

CITY           SKY/WX    TMP DP  RH WIND       PRES   REMARKS
DEFIANCE       FAIR      35  34  96 SW3       29.95R FOG
FINDLAY        FAIR      43  39  86 W8        29.94R FOG
TOLEDO EXPRESS FAIR      35  34  96 SW6       29.92R
TOLEDO EXEC    FAIR      39  38  96 SW9       29.93R
LIMA           CLOUDY    46  45  96 W9        29.97R FOG
$$

OHZ009>014-019>023-028>033-038-089-191300-
   NORTHEAST OHIO

CITY           SKY/WX    TMP DP  RH WIND       PRES   REMARKS
CLE-HOPKINS    FAIR      44  39  82 SW7       29.94R
CLE-LAKEFRONT  FAIR      45  40  82 SW9       29.90R
CUY CO. ARPT   PTCLDY    45  41  87 SW9       29.91
LORAIN-ELYRIA  FAIR      40  36  86 W8        29.92R
ASHTABULA      FAIR      37  36  96 S3        29.90R
AKRON-CANTON   FAIR      38  36  92 SW7       29.93R FOG
WOOSTER        FAIR      40  37  89 W5        29.94R FOG
MANSFIELD      MOCLDY    44  43  96 W13G20    29.94R FOG
YOUNGSTOWN     FAIR      42  39  89 SW6       29.91R
$$

OHZ042-051>053-060>062-070>072-077>081-191300-
  SOUTHWEST OHIO

CITY           SKY/WX    TMP DP  RH WIND       PRES   REMARKS
CINC-COVINGTON CLOUDY    48  46  93 W6        30.01S
CINC-LUNKEN    CLOUDY    49  47  93 SW6       30.02S
HAMILTON       CLOUDY    47  47 100 W7        30.02R
DAYTON         CLOUDY    44  44 100 W7        30.00R FOG
WRIGHT-PAT AFB CLOUDY    45  45 100 W7        30.00R
DAYTON GENERAL CLOUDY    46  45  96 W7        30.00R FOG
WILMINGTON     CLOUDY    45  44  97 SW9       29.99R FOG
$$

OHZ036-037-039>041-045>050-054>059-063>069-073>076-082>088-191300-
  CENTRAL AND SOUTHEAST OHIO

CITY           SKY/WX    TMP DP  RH WIND       PRES   REMARKS
COLUMBUS       CLOUDY    44  42  93 S5        29.98R FOG
OSU AIRPORT    CLOUDY    42  42 100 CALM      29.98R FOG
BOLTON FIELD   MOCLDY    39  39  99 CALM      29.99R VSB 1/2
RICKENBACK AFB FAIR      41  41 100 S6        29.99R FOG
NEWARK         CLOUDY    47  44  90 SW8       29.97R
MARION         CLOUDY    46  44  93 W8        29.97R FOG
LANCASTER      CLOUDY    47  44  90 SW3       29.99R FOG
ZANESVILLE     CLOUDY    49  44  83 W8        29.97R
NEW PHILLY     CLOUDY    45  43  93 CALM      29.96R
$$




USA.gov is the U.S. government's official web portal to all federal, state and local government web resources and services.